GW4271 Weather Reports


Display with metric or nautical units.
time (UTC)temp
F
wind
direction
speed
MPH
gust
MPH
rain 1hr
in
rain 24hr
in
rain mn
in
humidity
%
barometer
mb
20260510231355 77 158 1.0 2.0 0.00 0.01 0.01 87 1016.7
20260510230851 77 135 1.0 3.0 0.00 0.01 0.01 87 1016.6
20260510230345 77 161 0.0 3.0 0.00 0.01 0.01 86 1016.4
20260510225843 77 170 1.0 3.0 0.00 0.01 0.01 87 1016.4
20260510225339 78 140 1.0 3.0 0.00 0.01 0.01 86 1016.5
20260510224835 77 144 1.0 3.0 0.00 0.01 0.01 86 1016.7
20260510224331 78 129 4.0 6.0 0.00 0.01 0.01 85 1016.6
20260510223823 78 191 2.0 6.0 0.00 0.01 0.01 84 1016.3
20260510223320 78 157 4.0 7.0 0.00 0.01 0.01 84 1016.5
20260510222818 78 163 2.0 4.0 0.00 0.01 0.01 86 1016.6
20260510222314 78 145 3.0 4.0 0.00 0.01 0.01 83 1016.5
20260510221809 78 150 3.0 6.0 0.00 0.01 0.01 84 1016.6
20260510221306 78 130 1.0 4.0 0.00 0.01 0.01 84 1016.8
20260510220802 79 155 2.0 3.0 0.00 0.01 0.01 83 1016.6
20260510220258 80 140 2.0 4.0 0.00 0.01 0.01 83 1016.3
20260510215755 80 170 2.0 4.0 0.00 0.01 0.01 81 1016.5
20260510215253 80 155 2.0 4.0 0.00 0.01 0.01 81 1016.5
20260510214749 79 123 2.0 4.0 0.00 0.01 0.01 83 1016.5
20260510214247 79 56 3.0 6.0 0.00 0.01 0.01 82 1016.7
20260510213743 79 134 3.0 3.0 0.00 0.01 0.01 82 1016.5
20260510213241 79 159 2.0 7.0 0.00 0.01 0.01 83 1016.5
20260510212737 79 147 2.0 4.0 0.00 0.01 0.01 82 1016.4
20260510212234 80 64 2.0 7.0 0.00 0.01 0.01 82 1016.4
20260510211730 79 145 1.0 4.0 0.00 0.01 0.01 82 1016.5
20260510211226 80 66 2.0 3.0 0.00 0.01 0.01 80 1016.5
20260510210723 79 181 1.0 2.0 0.00 0.01 0.01 83 1016.5
20260510210218 79 133 3.0 4.0 0.00 0.01 0.01 83 1016.5
20260510205717 79 137 2.0 3.0 0.00 0.01 0.01 81 1016.6
20260510205213 80 168 2.0 4.0 0.00 0.01 0.01 80 1016.4
20260510204709 80 141 2.0 3.0 0.00 0.01 0.01 81 1016.7
20260510204206 79 176 3.0 6.0 0.00 0.01 0.01 82 1016.5
20260510203703 80 199 2.0 3.0 0.00 0.01 0.01 79 1016.5
20260510203200 80 144 1.0 6.0 0.00 0.01 0.01 80 1016.6
20260510202700 81 132 2.0 3.0 0.00 0.01 0.01 78 1016.5
20260510202155 80 108 3.0 4.0 0.00 0.01 0.01 77 1016.4
20260510201653 80 116 2.0 4.0 0.00 0.01 0.01 78 1016.6
20260510201149 80 163 3.0 7.0 0.00 0.01 0.01 80 1016.6
20260510200646 81 131 2.0 3.0 0.00 0.01 0.01 79 1016.5
20260510200144 81 144 1.0 3.0 0.00 0.01 0.01 79 1016.6
20260510195641 80 156 3.0 3.0 0.00 0.01 0.01 80 1016.6
20260510195137 80 115 3.0 6.0 0.00 0.01 0.01 81 1016.7
20260510194636 80 178 2.0 6.0 0.00 0.01 0.01 78 1016.7
20260510194133 80 143 2.0 4.0 0.00 0.01 0.01 79 1016.7
20260510193628 81 161 2.0 3.0 0.00 0.01 0.01 79 1016.8
20260510193124 80 96 1.0 2.0 0.00 0.01 0.01 80 1016.6
20260510192619 80 163 2.0 3.0 0.00 0.01 0.01 78 1016.9
20260510192116 80 195 4.0 4.0 0.00 0.01 0.01 77 1017.0
20260510191612 80 193 4.0 6.0 0.00 0.01 0.01 79 1016.8
20260510191108 79 137 3.0 7.0 0.00 0.01 0.01 81 1016.8
20260510190606 79 130 2.0 4.0 0.00 0.01 0.01 81 1017.0
20260510190103 79 135 2.0 4.0 0.00 0.01 0.01 82 1017.0
20260510185600 79 164 3.0 6.0 0.00 0.01 0.01 82 1017.2
20260510185057 80 141 3.0 4.0 0.00 0.01 0.01 81 1017.2
20260510184554 80 141 1.0 3.0 0.00 0.01 0.01 80 1017.1
20260510184049 80 130 4.0 4.0 0.00 0.01 0.01 79 1017.0
20260510183545 80 147 1.0 3.0 0.00 0.01 0.01 83 1016.9
20260510183041 79 143 1.0 4.0 0.00 0.01 0.01 82 1017.3
20260510182538 80 182 3.0 4.0 0.00 0.01 0.01 82 1017.5
20260510182032 79 141 2.0 4.0 0.00 0.01 0.01 82 1017.7
20260510181530 80 152 2.0 6.0 0.00 0.01 0.01 80 1017.3
20260510181026 80 155 2.0 4.0 0.00 0.01 0.01 82 1017.5
20260510180518 79 136 2.0 3.0 0.00 0.01 0.01 83 1017.6
20260510180016 78 91 1.0 4.0 0.00 0.01 0.01 84 1017.6
20260510175515 78 137 2.0 3.0 0.00 0.01 0.01 84 1017.7
20260510175012 78 182 2.0 4.0 0.00 0.01 0.01 83 1017.6
20260510174510 79 139 2.0 3.0 0.00 0.01 0.01 86 1017.7
20260510174007 79 118 2.0 3.0 0.00 0.01 0.01 84 1017.2
20260510173502 79 98 2.0 3.0 0.00 0.01 0.01 84 1017.4
20260510173000 78 142 2.0 4.0 0.00 0.01 0.01 86 1017.6
20260510172455 79 116 3.0 4.0 0.00 0.01 0.01 85 1017.7
20260510171952 79 138 2.0 3.0 0.00 0.01 0.01 85 1017.5
20260510171449 79 113 2.0 3.0 0.00 0.01 0.01 85 1017.5
20260510170945 80 129 1.0 3.0 0.00 0.01 0.01 85 1017.7
20260510170442 79 164 2.0 4.0 0.00 0.01 0.01 85 1017.9
20260510165938 79 159 2.0 4.0 0.00 0.01 0.01 86 1017.6
20260510165434 78 137 3.0 4.0 0.00 0.01 0.01 86 1017.7
20260510164931 78 142 3.0 4.0 0.00 0.01 0.01 87 1017.6
20260510164429 78 87 1.0 3.0 0.00 0.01 0.01 89 1017.9
20260510163928 78 195 2.0 4.0 0.00 0.01 0.01 87 1017.9
20260510163425 77 146 2.0 6.0 0.00 0.01 0.01 88 1017.8
20260510162919 77 150 4.0 7.0 0.00 0.01 0.01 88 1017.5
20260510162417 78 128 2.0 4.0 0.00 0.01 0.01 88 1017.6
20260510161913 78 125 3.0 4.0 0.00 0.01 0.01 87 1017.7
20260510161408 78 144 2.0 3.0 0.00 0.01 0.01 88 1017.7
20260510160905 79 144 2.0 3.0 0.00 0.01 0.01 85 1017.7
20260510160402 80 61 2.0 2.0 0.00 0.01 0.01 84 1017.7
20260510155856 79 46 0.0 3.0 0.00 0.01 0.01 80 1017.6
20260510155353 80 324 2.0 3.0 0.00 0.01 0.01 79 1017.7
20260510154849 78 66 1.0 6.0 0.00 0.01 0.01 80 1017.5
20260510154345 77 85 1.0 2.0 0.00 0.01 0.01 82 1017.7
20260510153840 78 342 4.0 4.0 0.00 0.01 0.01 79 1017.8
20260510153336 78 149 1.0 2.0 0.00 0.01 0.01 83 1018.1
20260510152833 77 10 2.0 4.0 0.00 0.01 0.01 87 1017.9
20260510152330 77 12 1.0 4.0 0.00 0.01 0.01 88 1017.8
20260510151826 76 71 2.0 4.0 0.00 0.01 0.01 88 1017.9
20260510151324 75 32 2.0 4.0 0.00 0.01 0.01 90 1017.9
20260510150820 75 88 1.0 4.0 0.00 0.01 0.01 90 1017.9
20260510150316 77 307 3.0 4.0 0.00 0.01 0.01 88 1017.7
20260510145812 78 106 1.0 2.0 0.07 0.01 0.01 87 1017.8
20260510145309 78 128 0.0 0.0 0.07 0.01 0.01 86 1017.8
20260510144805 78 94 1.0 2.0 0.00 0.00 0.00 86 1018.0
20260510144302 77 137 0.0 0.0 0.00 0.00 0.00 87 1018.0
20260510143801 76 153 0.0 0.0 0.00 0.00 0.00 89 1018.1
20260510143258 74 353 0.0 1.0 0.00 0.00 0.00 90 1017.9
20260510142754 75 346 1.0 2.0 0.00 0.00 0.00 90 1017.7
20260510142251 75 145 1.0 3.0 0.00 0.00 0.00 90 1017.7
20260510141748 74 123 1.0 2.0 0.00 0.00 0.00 92 1018.0
20260510141246 73 68 1.0 1.0 0.00 0.00 0.00 93 1017.9
20260510140743 72 191 1.0 3.0 0.00 0.00 0.00 94 1017.7
20260510140238 72 154 0.0 1.0 0.00 0.00 0.00 94 1017.6
20260510135737 72 147 0.0 0.0 0.00 0.00 0.00 95 1017.7
20260510135233 73 116 0.0 0.0 0.00 0.00 0.00 94 1017.7
20260510134731 72 103 0.0 3.0 0.00 0.00 0.00 95 1017.6
20260510134228 72 150 0.0 2.0 0.00 0.00 0.00 96 1017.5
20260510133724 71 121 0.0 6.0 0.00 0.00 0.00 96 1017.7
20260510133220 71 124 2.0 4.0 0.00 0.00 0.00 96 1017.5
20260510132716 71 85 1.0 2.0 0.00 0.00 0.00 97 1017.6
20260510132214 71 338 5.0 6.0 0.00 0.00 0.00 96 1017.5
20260510131711 71 359 5.0 7.0 0.00 0.00 0.00 96 1017.3
20260510131209 71 123 1.0 1.0 0.00 0.00 0.00 97 1017.4
20260510130704 70 24 1.0 4.0 0.00 0.00 0.00 97 1017.3
20260510130202 70 326 2.0 4.0 0.00 0.00 0.00 97 1017.5
20260510125652 70 325 4.0 6.0 0.00 0.00 0.00 97 1017.5
20260510125148 71 145 0.0 1.0 0.00 0.00 0.00 97 1017.2
20260510124646 70 356 2.0 3.0 0.00 0.00 0.00 98 1017.3
20260510124142 70 216 1.0 6.0 0.00 0.00 0.00 98 1017.1
20260510123638 70 147 0.0 1.0 0.00 0.00 0.00 99 1016.9
20260510123134 69 85 0.0 8.0 0.00 0.00 0.00 99 1017.0
20260510122630 69 147 0.0 4.0 0.00 0.00 0.00 99 1016.8
20260510122126 69 91 4.0 6.0 0.00 0.00 0.00 99 1016.6
20260510121623 68 354 5.0 7.0 0.00 0.00 0.00 99 1016.6
20260510121120 68 192 2.0 6.0 0.00 0.00 0.00 99 1016.5
20260510120619 68 322 4.0 4.0 0.00 0.00 0.00 99 1016.6
20260510120113 68 30 2.0 2.0 0.00 0.00 0.00 99 1016.7
20260510115610 68 148 0.0 3.0 0.00 0.00 0.00 99 1016.4
20260510115108 68 35 2.0 3.0 0.00 0.00 0.00 99 1016.4
20260510114603 68 160 3.0 4.0 0.00 0.00 0.00 99 1016.2
20260510114059 68 334 3.0 3.0 0.00 0.00 0.00 99 1016.2
20260510113555 68 71 2.0 3.0 0.00 0.00 0.00 99 1016.1
20260510113053 68 32 2.0 4.0 0.00 0.00 0.00 99 1016.2
20260510112549 68 138 0.0 0.0 0.00 0.00 0.00 99 1016.0
20260510112045 67 160 0.0 0.0 0.00 0.00 0.00 99 1015.9
20260510111542 66 159 0.0 0.0 0.00 0.00 0.00 99 1015.7
20260510111038 67 139 0.0 0.0 0.00 0.00 0.00 99 1015.7
20260510110534 66 150 0.0 0.0 0.00 0.00 0.00 99 1015.7
20260510110031 66 146 0.0 0.0 0.00 0.00 0.00 99 1015.4
20260510105526 66 147 0.0 0.0 0.00 0.00 0.00 99 1015.4
20260510105021 66 146 0.0 0.0 0.00 0.00 0.00 99 1015.6
20260510104518 66 140 0.0 0.0 0.00 0.00 0.00 99 1015.2
20260510104014 66 138 0.0 0.0 0.00 0.00 0.00 99 1015.4
20260510103512 67 136 0.0 0.0 0.00 0.00 0.00 99 1015.4
20260510103008 67 138 0.0 0.0 0.00 0.00 0.00 99 1015.2
20260510102504 67 145 0.0 0.0 0.00 0.00 0.00 99 1015.2
20260510102000 67 143 0.0 0.0 0.00 0.00 0.00 99 1015.1
20260510101458 67 138 0.0 0.0 0.00 0.00 0.00 99 1015.2
20260510100956 67 133 0.0 0.0 0.00 0.00 0.00 99 1015.0
20260510100452 67 116 0.0 0.0 0.00 0.00 0.00 99 1015.1
20260510095948 67 233 0.0 0.0 0.00 0.00 0.00 99 1015.0
20260510095444 67 156 0.0 0.0 0.00 0.00 0.00 99 1015.1
20260510094943 67 148 0.0 0.0 0.00 0.00 0.00 99 1015.0
20260510094438 67 148 0.0 0.0 0.00 0.00 0.00 99 1015.0
20260510093934 67 147 0.0 0.0 0.00 0.00 0.00 99 1014.9
20260510093430 67 146 0.0 0.0 0.00 0.00 0.00 99 1014.7
20260510092927 67 139 0.0 0.0 0.00 0.00 0.00 99 1014.6
20260510092424 67 140 0.0 0.0 0.00 0.00 0.00 99 1014.5
20260510091919 67 142 0.0 0.0 0.00 0.00 0.00 99 1014.4
20260510091416 67 20 0.0 1.0 0.00 0.00 0.00 99 1014.4
20260510090912 67 148 0.0 0.0 0.00 0.00 0.00 99 1014.4
20260510090409 67 125 0.0 0.0 0.00 0.00 0.00 99 1014.2
20260510085905 67 146 0.0 0.0 0.00 0.00 0.00 99 1014.4
20260510085400 68 143 0.0 0.0 0.00 0.00 0.00 99 1014.2
20260510084856 68 143 0.0 0.0 0.00 0.00 0.00 99 1014.1
20260510084354 68 143 0.0 0.0 0.00 0.00 0.00 99 1013.8
20260510083850 68 130 0.0 0.0 0.00 0.00 0.00 99 1013.7
20260510083346 68 142 0.0 0.0 0.00 0.00 0.00 99 1013.8
20260510082841 68 153 0.0 1.0 0.00 0.00 0.00 99 1013.8
20260510082339 68 144 0.0 0.0 0.00 0.00 0.00 99 1013.7
20260510081837 68 143 0.0 0.0 0.00 0.00 0.00 99 1013.6
20260510081334 68 133 0.0 1.0 0.00 0.00 0.00 99 1013.5
20260510080830 68 143 0.0 1.0 0.00 0.00 0.00 99 1013.5
20260510080325 68 127 0.0 0.0 0.00 0.00 0.00 99 1013.4
20260510075822 68 150 0.0 0.0 0.00 0.00 0.00 99 1013.4
20260510075319 68 114 0.0 0.0 0.00 0.00 0.00 99 1013.7
20260510074816 68 145 0.0 0.0 0.00 0.00 0.00 99 1013.9
20260510074314 68 152 0.0 1.0 0.00 0.00 0.00 99 1013.7
20260510073809 69 152 0.0 0.0 0.00 0.00 0.00 99 1013.9
20260510073305 69 149 0.0 0.0 0.00 0.00 0.00 99 1014.0
20260510072801 69 150 0.0 0.0 0.00 0.00 0.00 99 1014.1
20260510072258 69 150 0.0 0.0 0.00 0.00 0.00 99 1014.1
20260510071754 69 144 0.0 0.0 0.00 0.00 0.00 99 1014.0
20260510071251 69 144 0.0 0.0 0.00 0.00 0.00 99 1013.9
20260510070750 69 147 0.0 0.0 0.00 0.00 0.00 99 1013.8
20260510070247 69 145 0.0 0.0 0.00 0.00 0.00 99 1014.0
20260510065746 69 156 0.0 1.0 0.00 0.00 0.00 99 1013.9
20260510065243 69 145 0.0 2.0 0.00 0.00 0.00 99 1013.9
20260510064740 69 152 0.0 0.0 0.00 0.00 0.00 99 1013.8
20260510064238 69 149 0.0 1.0 0.00 0.00 0.00 99 1013.8
20260510063733 69 152 0.0 1.0 0.00 0.00 0.00 99 1013.8
20260510063230 69 141 0.0 0.0 0.00 0.00 0.00 99 1014.0
20260510062727 69 157 0.0 1.0 0.00 0.00 0.00 99 1014.3
20260510062223 69 154 1.0 1.0 0.00 0.00 0.00 99 1014.3
20260510061718 69 132 2.0 3.0 0.00 0.00 0.00 99 1014.3
20260510061216 69 329 1.0 3.0 0.00 0.00 0.00 99 1014.3
20260510060712 69 125 0.0 1.0 0.00 0.00 0.00 99 1014.7
20260510060208 69 139 0.0 1.0 0.00 0.00 0.00 99 1014.5
20260510055705 69 111 0.0 2.0 0.00 0.00 0.00 99 1014.5
20260510055203 69 131 1.0 2.0 0.00 0.00 0.00 99 1014.3
20260510054658 69 348 2.0 2.0 0.00 0.00 0.00 99 1014.2
20260510054154 68 132 0.0 0.0 0.00 0.00 0.00 99 1014.3
20260510053654 68 52 2.0 2.0 0.00 0.00 0.00 99 1014.1
20260510053151 68 170 0.0 1.0 0.00 0.00 0.00 99 1013.8
20260510052646 68 153 0.0 0.0 0.00 0.00 0.00 99 1013.7
20260510052142 69 146 0.0 0.0 0.00 0.00 0.00 99 1014.0
20260510051638 69 115 0.0 0.0 0.00 0.00 0.00 99 1014.0
20260510051135 69 150 0.0 0.0 0.00 0.00 0.00 99 1014.2
20260510050632 69 116 0.0 0.0 0.00 0.00 0.00 99 1014.4
20260510050130 69 337 0.0 0.0 0.00 0.00 0.00 99 1014.6
20260510045626 69 171 0.0 0.0 0.00 0.04 0.04 99 1014.6
20260510045123 69 140 0.0 0.0 0.00 0.04 0.04 99 1014.5
20260510044619 69 161 0.0 0.0 0.00 0.04 0.04 99 1014.7
20260510044116 69 134 0.0 0.0 0.00 0.04 0.04 99 1014.5
20260510043612 69 152 0.0 0.0 0.00 0.04 0.04 99 1014.6
20260510043108 69 143 0.0 0.0 0.00 0.04 0.04 99 1014.7
20260510042607 69 154 0.0 0.0 0.00 0.04 0.04 99 1014.9
20260510042102 69 139 0.0 0.0 0.00 0.04 0.04 99 1014.8
20260510041559 69 143 0.0 0.0 0.00 0.04 0.04 99 1015.0
20260510041057 69 147 0.0 0.0 0.00 0.04 0.04 99 1015.1
20260510040553 69 153 0.0 0.0 0.00 0.04 0.04 99 1015.0
20260510040049 69 125 0.0 0.0 0.00 0.04 0.04 99 1015.2
20260510035546 69 145 0.0 0.0 0.00 0.04 0.04 99 1015.1
20260510035045 69 148 0.0 0.0 0.00 0.04 0.04 99 1014.9
20260510034544 69 147 0.0 0.0 0.00 0.04 0.04 99 1015.0
20260510034041 70 135 0.0 0.0 0.00 0.04 0.04 99 1015.0
20260510033536 70 194 0.0 0.0 0.00 0.04 0.04 99 1015.1
20260510033035 70 149 0.0 0.0 0.00 0.04 0.04 99 1014.6
20260510032531 70 123 0.0 0.0 0.00 0.04 0.04 99 1015.0
20260510032026 70 161 0.0 0.0 0.00 0.04 0.04 99 1014.9
20260510031521 70 161 0.0 0.0 0.00 0.04 0.04 99 1014.8
20260510031017 70 161 0.0 0.0 0.00 0.04 0.04 99 1014.7
20260510030513 70 161 0.0 0.0 0.00 0.04 0.04 99 1014.6
20260510030011 70 166 0.0 0.0 0.00 0.04 0.04 99 1014.4
20260510025508 70 166 0.0 0.0 0.07 0.04 0.04 99 1014.5
20260510025005 70 166 0.0 0.0 0.07 0.04 0.04 99 1014.4
20260510024502 70 168 0.0 0.0 0.00 0.03 0.03 99 1014.1
20260510023958 70 290 0.0 0.0 0.00 0.03 0.03 99 1014.1
20260510023448 70 157 0.0 0.0 0.00 0.03 0.03 99 1013.9
20260510022945 70 157 0.0 0.0 0.00 0.03 0.03 99 1014.1
20260510022444 70 157 0.0 0.0 0.00 0.03 0.03 99 1014.3
20260510021943 70 136 0.0 0.0 0.00 0.03 0.03 99 1014.4
20260510021441 71 145 0.0 3.0 0.00 0.03 0.03 99 1014.6
20260510020938 71 144 0.0 1.0 0.00 0.03 0.03 99 1014.4
20260510020432 71 142 1.0 3.0 0.00 0.03 0.03 99 1014.4
20260510015928 71 118 1.0 1.0 0.00 0.03 0.03 99 1014.2
20260510015425 71 109 3.0 3.0 0.00 0.03 0.03 99 1014.3
20260510014919 71 141 2.0 3.0 0.00 0.03 0.03 99 1014.4
20260510014417 71 152 0.0 1.0 0.00 0.03 0.03 98 1014.6
20260510013914 71 135 0.0 2.0 0.00 0.03 0.03 98 1014.8
20260510013408 71 136 0.0 0.0 0.00 0.03 0.03 97 1014.6
20260510012904 71 39 2.0 2.0 0.00 0.03 0.03 97 1014.6
20260510012359 71 148 1.0 1.0 0.00 0.03 0.03 98 1014.8
20260510011854 71 104 2.0 6.0 0.00 0.03 0.03 98 1014.4
20260510011349 71 119 1.0 6.0 0.00 0.03 0.03 98 1014.1
20260510010846 71 105 1.0 4.0 0.00 0.03 0.03 98 1013.9
20260510010343 70 141 2.0 6.0 0.00 0.03 0.03 98 1013.9
20260510005840 70 116 1.0 6.0 0.00 0.03 0.03 98 1014.2
20260510005336 70 144 0.0 3.0 0.00 0.03 0.03 99 1014.1
20260510004834 70 149 2.0 3.0 0.00 0.03 0.03 99 1013.9
20260510004331 70 145 1.0 1.0 0.00 0.03 0.03 99 1013.9
20260510003829 70 145 1.0 2.0 0.00 0.03 0.03 99 1013.9
20260510003326 70 141 0.0 1.0 0.00 0.03 0.03 99 1013.9
20260510002824 70 137 0.0 0.0 0.00 0.03 0.03 99 1013.7
20260510002322 70 130 1.0 1.0 0.00 0.03 0.03 99 1013.4
20260510001813 70 147 0.0 0.0 0.00 0.03 0.03 99 1013.8
20260510001311 70 158 0.0 0.0 0.00 0.03 0.03 99 1013.9
20260510000807 70 93 0.0 0.0 0.00 0.03 0.03 99 1013.9
20260510000305 70 142 0.0 0.0 0.00 0.03 0.03 99 1013.7
20260509235801 70 143 0.0 0.0 0.00 0.03 0.03 99 1013.6
20260509235252 70 145 0.0 1.0 0.00 0.03 0.03 99 1013.5
20260509234748 70 123 0.0 1.0 0.00 0.03 0.03 99 1013.6
20260509234245 70 150 0.0 0.0 0.00 0.03 0.03 99 1013.6
20260509233743 70 148 0.0 0.0 0.00 0.03 0.03 99 1013.7
20260509233240 70 148 0.0 0.0 0.00 0.03 0.03 98 1013.8
20260509232736 70 149 0.0 0.0 0.00 0.03 0.03 98 1013.8
20260509232233 71 217 0.0 0.0 0.00 0.03 0.03 98 1013.8